Temp
-10 -10 -10 -10 -10 -10 -10 -10 -10 -10 -10 -10 -9 -9 -9 -9 -9 -9 -9 -9 -9 -8 -9 -9 -10 -10 -10 -11 -10 -10 -11 -10 -10 -10 -11 -12 -14 -15 -16 -16 -16 -16 -16 -15 -14
-10 -10 -10 -10 -10 -10 -10 -10 -10 -10 -10 -10 -10 -9 -9 -9 -9 -9 -9 -9 -8 -9 -9 -10 -10 -10 -11 -11 -11 -11 -11 -10 -11 -11 -12 -13 -15 -16 -16 -17 -17 -16 -17 -16 -15
-10 -10 -10 -10 -10 -10 -10 -10 -10 -10 -10 -10 -10 -10 -9 -9 -10 -9 -9 -9 -8 -10 -10 -10 -10 -11 -11 -11 -11 -11 -11 -11 -11 -12 -14 -15 -15 -15 -17 -17 -17 -17 -17 -17 -16
-11 -11 -10 -10 -10 -11 -10 -10 -10 -10 -10 -10 -10 -10 -10 -10 -10 -9 -9 -9 -9 -10 -10 -10 -11 -11 -12 -12 -12 -12 -11 -11 -12 -13 -15 -16 -16 -16 -17 -17 -17 -17 -18 -17 -16
-11 -11 -11 -11 -11 -11 -11 -11 -10 -10 -10 -10 -10 -10 -10 -10 -10 -10 -10 -9 -9 -10 -10 -10 -11 -11 -12 -12 -12 -12 -12 -12 -13 -15 -16 -16 -16 -16 -17 -17 -17 -17 -18 -17 -17
-11 -11 -11 -11 -11 -11 -11 -11 -10 -10 -10 -10 -10 -10 -10 -10 -10 -10 -9 -9 -10 -10 -10 -11 -11 -12 -12 -12 -12 -12 -12 -12 -14 -15 -16 -16 -17 -17 -17 -18 -18 -18 -19 -18 -17
-12 -11 -11 -11 -11 -11 -11 -11 -10 -10 -10 -10 -10 -10 -10 -10 -10 -10 -9 -10 -10 -10 -11 -11 -11 -12 -13 -12 -12 -12 -13 -14 -15 -17 -17 -17 -17 -17 -17 -18 -18 -19 -19 -19 -18
-12 -12 -11 -11 -11 -11 -11 -11 -11 -11 -11 -10 -10 -10 -10 -10 -10 -10 -10 -10 -11 -11 -10 -11 -12 -12 -12 -12 -13 -13 -12 -13 -15 -17 -17 -17 -18 -18 -18 -18 -18 -19 -19 -19 -18
-12 -12 -12 -11 -11 -12 -11 -11 -11 -11 -11 -11 -11 -10 -10 -11 -10 -9 -10 -10 -11 -10 -10 -12 -12 -13 -13 -13 -13 -12 -12 -13 -15 -17 -18 -17 -18 -18 -18 -18 -18 -18 -19 -19 -18
-12 -12 -12 -11 -11 -12 -12 -11 -11 -11 -11 -11 -11 -11 -11 -11 -10 -10 -10 -11 -11 -10 -11 -12 -12 -13 -13 -13 -13 -13 -12 -13 -16 -18 -18 -18 -18 -19 -19 -19 -19 -19 -19 -19 -18
-13 -13 -12 -12 -11 -12 -12 -12 -11 -11 -11 -11 -11 -11 -11 -10 -10 -10 -11 -11 -11 -11 -12 -12 -13 -13 -13 -13 -13 -13 -12 -13 -15 -17 -17 -18 -19 -19 -20 -20 -19 -19 -19 -19 -19
-13 -13 -12 -12 -12 -12 -12 -11 -11 -11 -11 -11 -11 -11 -10 -10 -10 -10 -11 -11 -10 -11 -11 -12 -13 -13 -13 -13 -13 -13 -13 -13 -15 -16 -17 -17 -18 -19 -20 -20 -19 -19 -19 -19 -19
-13 -13 -13 -12 -12 -12 -12 -12 -12 -11 -11 -11 -11 -11 -11 -11 -11 -11 -11 -11 -11 -11 -12 -12 -13 -13 -13 -13 -13 -13 -13 -13 -16 -16 -17 -18 -18 -19 -19 -20 -19 -19 -19 -19 -19
-13 -13 -13 -13 -13 -12 -12 -12 -12 -12 -11 -11 -11 -11 -11 -11 -11 -11 -11 -11 -11 -12 -12 -13 -13 -13 -13 -13 -13 -13 -13 -14 -16 -16 -17 -17 -18 -18 -19 -19 -19 -19 -19 -19 -19
-14 -13 -13 -13 -12 -12 -13 -12 -12 -12 -11 -11 -11 -11 -11 -11 -11 -11 -11 -11 -12 -12 -13 -12 -13 -14 -14 -14 -14 -14 -14 -14 -16 -16 -17 -17 -17 -18 -18 -19 -19 -19 -18 -19 -18
-14 -14 -13 -13 -13 -12 -12 -12 -12 -12 -12 -11 -11 -11 -11 -11 -11 -11 -11 -12 -13 -12 -13 -13 -13 -14 -14 -14 -14 -14 -14 -14 -15 -17 -17 -17 -17 -17 -18 -18 -18 -18 -19 -18 -18
-14 -14 -14 -14 -13 -13 -12 -12 -12 -12 -12 -12 -11 -11 -11 -12 -12 -12 -12 -12 -12 -13 -13 -13 -13 -14 -14 -14 -14 -14 -14 -14 -14 -15 -17 -17 -17 -18 -18 -18 -18 -18 -18 -18 -18
-14 -14 -14 -14 -14 -13 -13 -13 -12 -12 -12 -12 -12 -12 -12 -12 -12 -12 -12 -12 -13 -13 -13 -13 -13 -14 -14 -14 -14 -14 -14 -14 -15 -16 -17 -18 -18 -18 -18 -18 -18 -18 -18 -18 -18
-14 -14 -14 -14 -14 -14 -13 -13 -13 -13 -12 -12 -13 -12 -12 -12 -12 -13 -13 -13 -13 -13 -13 -13 -13 -14 -14 -14 -14 -14 -14 -14 -14 -15 -16 -18 -18 -18 -18 -18 -18 -18 -18 -18 -18
-14 -14 -14 -14 -14 -14 -13 -13 -13 -13 -13 -12 -12 -13 -11 -12 -12 -13 -13 -14 -14 -13 -13 -13 -13 -14 -14 -14 -14 -14 -15 -15 -15 -15 -16 -17 -18 -18 -18 -18 -18 -18 -18 -18 -18
-14 -14 -14 -14 -14 -14 -14 -14 -13 -13 -13 -13 -13 -13 -12 -12 -13 -13 -14 -14 -13 -14 -14 -14 -14 -14 -14 -14 -15 -15 -15 -15 -15 -15 -15 -16 -17 -19 -18 -18 -18 -18 -18 -18 -18
-14 -13 -14 -14 -14 -14 -14 -14 -14 -13 -13 -13 -13 -13 -13 -13 -13 -13 -13 -14 -14 -14 -14 -14 -14 -14 -14 -14 -14 -15 -15 -15 -15 -15 -15 -16 -16 -18 -19 -19 -18 -18 -18 -18 -17
-14 -14 -14 -13 -13 -14 -14 -14 -14 -14 -14 -13 -14 -13 -13 -13 -14 -13 -13 -14 -14 -14 -14 -14 -14 -14 -14 -15 -15 -15 -15 -15 -15 -15 -15 -16 -16 -17 -18 -19 -19 -18 -18 -18 -18
-14 -14 -14 -13 -13 -14 -14 -14 -14 -14 -14 -14 -14 -14 -14 -14 -14 -13 -13 -14 -14 -14 -14 -14 -14 -14 -14 -15 -15 -15 -15 -15 -15 -15 -15 -16 -16 -16 -17 -19 -19 -19 -19 -18 -18
-14 -13 -13 -13 -13 -14 -15 -14 -15 -14 -14 -14 -14 -14 -14 -13 -14 -13 -13 -13 -14 -13 -14 -14 -14 -14 -14 -15 -15 -15 -15 -15 -15 -15 -15 -16 -16 -16 -17 -18 -19 -19 -19 -19 -19
-15 -13 -14 -14 -14 -14 -14 -14 -15 -14 -14 -14 -14 -14 -14 -14 -14 -14 -13 -14 -14 -14 -14 -14 -14 -14 -14 -14 -15 -15 -15 -15 -15 -15 -15 -15 -16 -16 -16 -17 -18 -20 -20 -20 -20
-14 -14 -15 -14 -14 -13 -13 -15 -15 -15 -14 -14 -14 -14 -14 -14 -14 -14 -13 -14 -14 -14 -14 -14 -14 -14 -14 -14 -14 -15 -15 -15 -16 -15 -15 -15 -16 -16 -16 -16 -18 -20 -21 -21 -20
Height
5851 5851 5852 5852 5853 5854 5854 5854 5854 5853 5853 5854 5855 5854 5853 5853 5851 5849 5848 5845 5843 5840 5836 5832 5827 5824 5820 5816 5811 5806 5802 5796 5792 5785 5778 5774 5770 5769 5768 5765 5765 5769 5772 5778 5781
5849 5850 5852 5852 5852 5852 5853 5852 5852 5852 5852 5852 5853 5852 5851 5851 5850 5848 5847 5844 5842 5838 5834 5830 5825 5820 5815 5810 5806 5800 5795 5789 5782 5774 5769 5762 5762 5760 5759 5758 5758 5761 5764 5768 5772
5849 5848 5850 5849 5850 5850 5850 5850 5850 5851 5851 5851 5851 5851 5850 5849 5849 5847 5845 5843 5839 5836 5831 5826 5821 5816 5809 5805 5800 5795 5789 5783 5776 5768 5762 5755 5754 5751 5750 5751 5753 5754 5754 5758 5761
5847 5847 5848 5848 5848 5848 5849 5850 5849 5850 5850 5849 5850 5851 5849 5848 5849 5845 5843 5840 5837 5833 5828 5823 5818 5812 5806 5802 5796 5790 5783 5776 5768 5762 5756 5750 5746 5745 5745 5745 5744 5746 5747 5749 5751
5844 5844 5845 5846 5846 5846 5847 5847 5848 5848 5849 5848 5848 5849 5848 5847 5845 5843 5841 5837 5834 5830 5824 5820 5813 5807 5802 5797 5791 5785 5777 5769 5761 5753 5749 5745 5741 5739 5739 5737 5736 5737 5738 5741 5744
5841 5842 5843 5843 5843 5843 5846 5847 5845 5846 5847 5846 5847 5847 5847 5845 5843 5841 5838 5834 5832 5827 5823 5815 5809 5802 5798 5792 5786 5779 5773 5763 5754 5747 5743 5740 5735 5732 5731 5730 5728 5729 5730 5734 5738
5839 5839 5841 5842 5841 5840 5842 5843 5843 5844 5845 5844 5845 5846 5845 5844 5841 5838 5834 5832 5828 5824 5818 5811 5806 5800 5794 5789 5782 5776 5767 5759 5748 5743 5738 5735 5730 5726 5724 5725 5722 5722 5723 5726 5731
5836 5836 5839 5840 5839 5838 5840 5841 5841 5842 5843 5842 5843 5844 5842 5840 5838 5835 5834 5830 5825 5821 5815 5808 5803 5797 5791 5786 5778 5771 5762 5751 5742 5735 5733 5731 5726 5721 5718 5718 5718 5717 5718 5720 5725
5834 5834 5835 5836 5836 5835 5836 5838 5838 5839 5840 5840 5840 5840 5839 5837 5834 5833 5832 5827 5822 5818 5812 5806 5800 5796 5790 5782 5775 5769 5759 5747 5737 5732 5731 5727 5722 5717 5715 5713 5713 5713 5714 5716 5719
5830 5831 5833 5832 5833 5833 5833 5834 5836 5836 5837 5837 5838 5839 5837 5835 5833 5831 5829 5825 5819 5815 5810 5804 5798 5792 5787 5782 5774 5765 5756 5741 5733 5730 5727 5723 5718 5712 5710 5709 5708 5708 5710 5712 5715
5827 5827 5830 5829 5830 5830 5831 5831 5834 5835 5834 5834 5835 5834 5833 5833 5832 5829 5826 5822 5818 5813 5807 5801 5795 5792 5786 5778 5771 5762 5752 5740 5731 5728 5726 5721 5714 5709 5705 5704 5704 5705 5706 5709 5711
5823 5824 5826 5826 5826 5827 5828 5828 5830 5831 5831 5831 5831 5831 5830 5829 5828 5826 5823 5821 5816 5810 5804 5799 5794 5789 5783 5777 5770 5760 5750 5739 5733 5729 5725 5720 5714 5708 5704 5703 5702 5703 5704 5706 5707
5818 5820 5821 5822 5822 5823 5825 5826 5826 5826 5828 5828 5827 5828 5828 5828 5825 5823 5820 5816 5813 5807 5801 5796 5792 5788 5782 5777 5769 5760 5750 5739 5734 5730 5724 5719 5714 5708 5706 5703 5702 5702 5703 5703 5705
5812 5815 5816 5818 5819 5819 5819 5822 5821 5824 5824 5826 5825 5825 5826 5824 5822 5819 5816 5814 5809 5804 5799 5795 5791 5786 5782 5775 5769 5760 5751 5741 5735 5732 5727 5721 5717 5710 5707 5704 5702 5702 5702 5702 5703
5806 5809 5810 5813 5814 5814 5816 5817 5818 5820 5821 5822 5821 5821 5822 5822 5819 5817 5814 5810 5806 5800 5797 5794 5789 5785 5781 5776 5767 5761 5751 5743 5736 5732 5728 5722 5718 5712 5708 5705 5703 5701 5700 5700 5701
5800 5803 5805 5807 5808 5810 5811 5812 5814 5817 5817 5817 5817 5818 5818 5817 5815 5813 5810 5807 5802 5798 5794 5791 5788 5784 5780 5775 5768 5761 5752 5745 5738 5732 5728 5724 5719 5714 5709 5706 5704 5702 5700 5699 5700
5793 5797 5798 5800 5803 5805 5806 5807 5810 5811 5814 5814 5813 5813 5814 5813 5813 5809 5806 5802 5799 5796 5791 5789 5786 5784 5780 5775 5769 5761 5754 5749 5742 5733 5728 5723 5720 5715 5710 5706 5704 5702 5700 5699 5699
5784 5790 5792 5794 5797 5799 5801 5803 5804 5806 5807 5808 5808 5808 5810 5810 5809 5806 5802 5799 5797 5792 5789 5786 5786 5782 5779 5774 5769 5763 5755 5748 5741 5734 5727 5723 5720 5717 5713 5708 5705 5702 5700 5698 5697
5776 5781 5785 5787 5790 5793 5795 5796 5797 5799 5801 5802 5803 5802 5805 5806 5804 5802 5798 5795 5793 5789 5787 5784 5783 5781 5778 5774 5769 5764 5757 5750 5743 5736 5730 5724 5721 5717 5713 5709 5706 5703 5700 5698 5696
5767 5772 5777 5780 5782 5784 5788 5790 5791 5793 5794 5797 5797 5797 5799 5801 5800 5798 5794 5792 5787 5785 5783 5781 5780 5778 5776 5774 5769 5764 5758 5751 5744 5737 5731 5725 5720 5717 5714 5710 5707 5704 5701 5698 5696
5758 5763 5769 5771 5773 5776 5780 5783 5784 5786 5788 5791 5792 5792 5795 5796 5796 5795 5792 5786 5782 5781 5781 5780 5777 5778 5774 5772 5768 5764 5758 5751 5745 5739 5733 5726 5721 5716 5713 5711 5708 5705 5703 5701 5699
5749 5753 5760 5760 5763 5768 5773 5776 5778 5779 5781 5784 5786 5787 5790 5790 5789 5789 5788 5780 5779 5778 5778 5778 5775 5774 5772 5769 5767 5764 5758 5752 5746 5742 5735 5729 5724 5716 5713 5711 5709 5707 5704 5702 5700
5737 5743 5748 5750 5751 5759 5765 5767 5770 5772 5774 5778 5779 5781 5783 5784 5783 5783 5782 5778 5773 5775 5774 5773 5772 5772 5770 5768 5765 5762 5758 5753 5748 5742 5738 5731 5725 5717 5714 5711 5709 5707 5705 5702 5700
5726 5730 5735 5740 5743 5750 5756 5757 5761 5765 5767 5770 5772 5774 5776 5777 5777 5777 5776 5777 5768 5770 5770 5770 5769 5769 5768 5765 5762 5759 5756 5753 5748 5743 5739 5734 5727 5719 5714 5711 5708 5706 5704 5702 5700
5712 5717 5724 5728 5736 5742 5745 5746 5752 5757 5759 5761 5763 5766 5768 5770 5771 5771 5772 5770 5765 5764 5766 5766 5766 5765 5765 5762 5760 5758 5755 5752 5749 5744 5739 5735 5729 5722 5715 5710 5707 5704 5702 5701 5700
5699 5703 5711 5719 5725 5729 5733 5738 5745 5748 5751 5752 5755 5756 5760 5763 5765 5766 5766 5766 5760 5761 5761 5762 5763 5761 5760 5759 5756 5755 5753 5750 5747 5744 5740 5735 5730 5724 5716 5709 5704 5701 5700 5698 5698
5684 5691 5699 5708 5714 5718 5722 5731 5734 5737 5740 5744 5744 5748 5752 5755 5756 5759 5759 5759 5754 5756 5756 5757 5758 5758 5757 5755 5754 5753 5751 5749 5747 5743 5739 5735 5731 5725 5719 5711 5704 5699 5697 5696 5695
Wind_Speed
5 7 9 9 8 8 8 7 5 2 1 3 5 6 5 7 8 9 12 16 19 18 23 28 30 33 37 34 32 30 28 29 34 40 41 40 36 28 26 31 31 39 40 41 41
7 7 8 8 7 6 8 5 4 3 2 1 2 4 5 6 9 11 14 15 18 18 23 26 32 36 35 31 30 29 30 33 39 41 40 41 33 27 27 27 27 25 38 39 46
9 9 10 8 8 6 5 5 4 5 6 4 3 5 6 6 10 12 16 18 22 22 25 29 34 36 34 30 29 28 28 34 38 39 36 34 31 28 26 27 24 24 31 39 43
9 9 10 9 8 5 5 5 4 4 6 6 6 9 7 7 10 14 17 21 26 24 28 33 34 34 31 30 31 30 33 37 39 36 29 28 27 19 19 24 26 24 27 40 44
6 9 11 10 8 7 7 6 4 3 6 7 8 12 10 9 12 15 19 23 25 25 30 33 35 35 33 32 32 32 35 38 41 33 26 26 25 21 19 23 26 27 27 35 37
5 8 11 11 10 9 8 8 5 6 6 7 9 11 8 9 13 16 20 23 23 27 31 33 34 34 32 33 34 35 39 43 41 31 26 23 24 21 20 18 21 22 27 34 36
5 9 12 13 12 10 10 9 7 7 7 7 8 7 7 10 12 17 21 22 25 27 31 34 35 34 34 34 36 38 42 40 35 25 22 22 23 21 22 16 19 19 25 31 39
6 8 11 14 14 12 12 11 8 7 6 5 6 7 9 11 16 21 22 20 23 28 31 33 35 35 35 36 38 41 46 49 39 28 23 24 25 23 22 16 16 19 23 27 31
8 8 11 13 15 14 13 12 11 9 8 7 5 6 8 12 16 20 21 22 24 29 31 33 33 34 35 38 41 43 47 49 37 27 21 26 26 23 21 18 15 19 23 25 29
12 9 10 12 13 14 14 13 11 10 10 10 8 7 9 13 16 16 19 23 25 27 32 31 31 34 36 38 41 45 49 49 34 21 20 26 25 23 22 18 14 17 22 24 27
14 13 11 11 12 12 13 12 11 11 11 11 9 7 9 14 16 17 20 23 25 27 29 30 31 31 35 39 43 46 48 49 34 19 22 26 26 26 21 16 13 12 19 23 24
13 16 14 12 11 11 11 11 12 11 11 11 9 7 10 15 17 18 21 23 25 27 29 29 29 32 36 39 42 46 48 45 28 23 25 27 26 23 14 10 8 7 11 19 21
12 15 16 14 13 11 10 10 11 12 12 11 10 10 13 16 19 20 21 23 25 28 28 28 30 29 33 37 41 45 47 44 26 26 27 27 24 21 11 11 3 4 8 12 18
13 17 17 16 13 13 12 13 11 12 12 12 12 12 14 17 18 21 23 24 25 26 26 28 27 28 31 35 39 43 46 42 26 24 26 27 24 21 14 11 6 5 6 2 5
17 18 16 19 16 16 15 15 13 13 13 12 13 14 17 21 20 21 22 23 26 24 25 25 24 27 29 33 37 41 45 42 27 22 25 28 24 23 17 11 10 8 8 6 3
23 19 18 19 18 16 18 18 16 15 15 13 15 18 18 21 21 21 22 22 24 23 22 23 21 24 29 32 35 38 43 41 34 23 23 24 27 24 21 17 12 10 9 10 8
29 20 19 18 18 18 18 20 19 17 17 16 14 16 20 23 23 21 21 22 22 20 21 22 21 22 25 29 33 38 40 42 40 33 23 22 23 24 23 20 16 14 11 10 10
32 24 20 21 20 20 21 20 20 20 21 20 18 14 18 24 25 21 20 23 20 18 21 21 19 20 23 26 30 34 37 42 41 37 28 19 21 22 20 19 18 14 12 11 9
33 28 26 21 21 22 23 22 20 21 19 21 20 16 19 24 25 21 21 21 17 17 17 17 18 19 22 25 28 32 35 39 40 38 36 25 19 19 21 19 17 14 12 10 9
36 33 29 26 22 23 25 24 21 22 19 20 21 18 23 26 25 23 21 17 16 17 18 15 16 17 20 22 26 29 32 36 39 40 37 33 21 19 18 19 16 14 13 12 12
39 33 29 28 26 26 24 25 23 22 20 20 21 18 20 24 25 26 23 14 15 16 16 16 16 16 19 21 23 26 29 32 35 38 39 36 30 20 19 17 14 11 11 11 12
42 39 33 34 32 27 24 25 25 24 22 21 22 19 20 22 20 22 25 14 15 15 15 14 15 15 17 19 20 22 25 29 31 35 37 35 32 23 16 17 13 6 8 9 12
44 42 42 41 38 30 25 25 27 26 23 23 23 21 20 21 19 18 19 17 13 14 14 13 14 13 15 15 18 20 21 25 27 29 34 34 33 27 16 15 15 10 8 10 10
45 45 43 43 44 35 26 28 30 28 25 25 26 23 21 21 18 15 16 22 10 14 15 14 15 14 13 14 16 17 20 22 25 27 29 31 30 31 20 12 14 14 13 13 13
51 51 49 47 43 37 33 34 29 29 30 28 27 26 24 22 19 16 16 20 13 14 18 14 17 16 15 12 13 15 15 18 21 24 26 28 30 30 29 16 15 16 17 16 14
61 57 51 48 44 43 41 34 28 30 31 30 27 29 25 23 20 17 13 21 16 18 17 16 15 16 18 15 15 16 15 16 18 21 23 25 28 30 32 29 19 16 14 15 14
67 62 54 48 42 45 44 36 31 33 32 30 32 29 26 26 20 20 15 21 19 16 19 14 18 15 16 16 16 16 16 16 16 17 20 23 25 28 31 32 28 17 11 9 9
Wind_Direction
216 229 241 250 264 279 288 293 314 319 105 85 60 30 9 355 356 341 331 336 341 326 327 322 327 329 326 330 329 327 324 321 319 316 313 309 301 291 270 268 263 246 238 237 242
229 234 243 252 257 286 278 266 287 248 180 103 13 347 340 330 340 340 342 341 334 334 322 326 331 329 332 333 331 330 328 326 324 322 316 310 309 290 272 267 270 261 241 232 232
246 238 246 245 259 280 244 240 271 266 240 262 286 312 306 319 341 339 344 339 338 330 332 334 330 330 333 338 336 333 331 329 326 322 314 311 308 302 260 264 270 269 242 232 231
250 239 242 242 255 239 236 249 271 271 248 259 280 299 305 317 330 328 338 346 333 335 337 335 332 335 336 345 343 339 336 335 330 323 313 312 318 318 276 269 271 266 241 230 230
246 235 237 241 235 225 228 234 249 264 258 262 279 293 298 318 323 329 335 343 331 335 335 336 340 341 344 348 346 342 338 340 334 322 309 316 318 301 276 270 272 259 242 228 238
236 235 236 231 224 225 231 241 241 257 269 286 288 281 302 330 330 335 338 333 332 330 337 340 341 342 344 350 348 343 344 340 337 325 315 322 320 307 290 274 276 255 236 227 227
246 230 236 233 231 225 232 240 244 260 267 287 298 296 318 332 334 336 341 327 325 336 338 342 342 341 348 351 349 348 344 342 333 321 321 326 326 308 297 281 267 260 231 228 227
253 236 238 238 233 229 234 240 243 252 262 286 328 325 329 333 338 346 340 326 326 336 342 339 344 345 350 349 352 351 347 343 337 327 329 330 327 318 305 284 267 249 234 230 222
265 241 237 237 235 232 234 237 243 244 250 255 264 287 319 329 346 340 332 321 333 342 341 343 344 346 349 350 352 351 350 345 339 324 325 330 331 318 311 290 273 242 233 229 230
268 257 247 242 240 239 238 239 242 244 245 256 263 291 319 345 339 331 331 323 340 342 338 342 345 348 353 350 352 355 352 349 346 336 331 333 332 321 313 303 280 242 232 231 232
271 270 258 245 243 244 243 242 241 241 237 247 259 286 332 335 327 332 328 335 342 337 337 345 346 350 351 353 355 357 356 356 359 10 346 347 340 329 316 299 289 256 236 235 234
269 271 268 254 245 249 250 243 246 244 243 252 264 298 315 324 321 322 328 335 339 332 341 343 347 350 355 355 357 1 1 2 13 8 358 356 347 352 349 331 312 272 252 248 244
275 270 261 263 254 250 258 256 252 250 250 262 275 292 304 309 316 319 328 335 332 337 339 345 351 350 355 357 358 3 6 6 16 8 5 359 356 359 356 339 328 274 292 252 250
280 258 255 257 260 256 257 259 258 266 267 272 284 290 300 304 312 321 329 327 327 332 340 350 349 349 354 360 360 6 9 8 8 8 9 8 1 4 1 337 340 310 275 334 257
268 254 251 248 256 255 255 263 266 273 269 270 281 292 298 303 313 315 318 320 322 336 343 348 347 349 356 358 4 8 12 9 3 357 1 5 7 4 9 350 338 332 316 295 299
261 265 245 244 245 251 255 257 264 268 266 271 284 292 297 297 303 309 313 316 328 333 340 346 345 349 354 359 4 10 14 13 4 346 350 2 7 7 9 9 355 335 327 314 304
256 256 244 240 248 246 247 249 252 260 265 274 282 294 296 293 293 300 306 316 324 334 341 343 344 348 355 359 2 9 12 12 11 5 351 357 2 1 4 6 1 360 350 325 308
252 250 250 250 259 251 245 244 242 249 257 264 270 283 291 286 293 300 307 315 321 338 345 341 339 347 353 359 3 8 11 14 12 11 0 350 356 358 359 1 1 358 356 348 328
247 249 251 257 258 259 248 246 244 250 259 271 278 286 294 287 289 295 304 311 320 336 340 341 339 344 351 357 3 6 11 14 12 15 10 2 351 353 354 357 1 359 355 359 355
244 245 252 258 259 252 248 249 246 246 253 262 274 285 292 290 287 289 293 303 323 331 334 334 337 338 350 354 360 6 8 14 13 13 12 9 3 352 354 354 360 2 1 8 11
241 245 249 258 258 255 252 251 248 245 251 257 261 264 263 270 276 281 287 308 318 328 331 331 335 340 344 352 357 2 6 13 14 12 10 7 3 357 356 353 359 23 47 38 29
238 248 253 258 256 257 253 251 250 249 251 256 260 257 260 262 271 284 289 296 311 326 331 327 329 335 340 345 350 359 3 9 12 11 9 8 6 357 356 356 355 2 26 32 22
243 254 249 255 258 254 256 253 253 251 252 256 257 259 263 265 269 280 286 290 306 319 326 320 324 327 333 338 342 351 359 4 10 9 8 9 7 360 355 351 356 337 337 360 9
241 247 247 249 255 254 253 252 252 251 253 255 255 258 265 265 269 270 279 287 306 318 317 314 319 325 327 333 339 343 350 359 4 7 9 8 10 13 358 335 334 332 328 334 340
243 242 245 246 252 260 251 251 251 252 252 253 257 258 261 261 264 259 274 274 292 303 310 308 316 321 325 326 329 332 340 350 357 3 4 5 10 12 15 347 319 320 323 330 332
240 245 245 247 248 250 249 249 254 254 255 250 251 254 259 257 255 257 269 270 278 289 300 302 308 311 317 328 325 325 330 338 347 357 360 3 6 8 16 15 344 319 326 334 340
238 243 249 247 248 248 247 247 250 249 250 248 249 253 255 253 249 248 258 269 274 279 283 293 303 305 313 325 324 319 319 322 334 347 354 358 1 8 12 18 13 355 342 340 344